www.pogodaiklimat.ru

Погода и климат >> Архив погоды >> Россия >> Челябинская область >> Бродокалмак


ПОГОДА в Бродокалмаке

  • Прогноз погоды в Бродокалмаке
  • Монитор погоды в Бродокалмаке

АРХИВ ПОГОДЫ в Бродокалмаке

Время (UTC), дата Ветер
(напр.,м/с)
 
Видим.   Явления Облачность Т
(С)
Тd
(С)
f
(%)
Тe
(С)
Тes
(С)
Комфортность P
(гПа)
Po
(гПа)
Тmin
(С)
Tmax
(С)
R
(мм)
R24
(мм)
S
(см)
03 18.08 Ю 1 20 км 10/4 1000 м
[Sc Ac cast Cc]
+19.2 +16.0 82 +22 +23 комфорт 1018.5 1000.0 +14.9
06 18.08 СЗ 2 20 км 10/0 2000 м
[Ac trans Ci sp]
+25.3 +18.2 65 +30 +36 душно 1018.9 1000.8
09 18.08 С 2 20 км 6/0 2000 м
[Ac trans Ci sp]
+26.0 +15.9 54 +29 +38 душно 1019.1 1001.1
12 18.08 СВ 2 20 км 8/1 600 м
[Cu hum Ac trans Ci sp]
+28.1 +11.7 36 +29 +31 жарко 1019.4 1001.4
15 18.08 штиль 0 20 км 10/0 2000 м
[Ac As]
+23.1 +17.7 72 +29 +29 очень
душно
1020.4 1002.1 +29.2
18 18.08 С 1 10 км 10/10 1000 м
[Sc]
+19.6 +17.1 85 +23 +23 комфорт 1022.2 1003.7
21 18.08 С 2 10 км 10/10 600 м
[Cu Sc]
+17.8 +16.2 90 +18 +18 1023.9 1005.2
00 19.08 СВ 2 10 км 10/10 600 м
[Sc]
+17.1 +15.9 93 +17 +17 1024.9 1006.2
03 19.08 В 2 20 км 10/10 600 м
[Sc]
+17.3 +14.8 85 +18 +18 1026.0 1007.2 +16.9
06 19.08 СВ 2 20 км 10/0 2000 м
[Ac As]
+19.8 +15.0 74 +22 +25 комфорт 1026.4 1007.8
09 19.08 СВ 4 20 км 8/3 600 м
[Cu hum Ac trans Ci fib]
+22.6 +15.2 63 +26 +30 жарко 1025.9 1007.5
12 19.08 С 1 20 км {ливн. осадки} 10/10 600 м
[Sc]
+22.0 +14.7 63 +25 +25 комфорт 1025.9 1007.4
15 19.08 СВ 2 20 км осадки на расстоянии 10/10 600 м
[Cb cap]
+19.9 +15.6 76 +23 +23 комфорт 1025.8 1007.2 +23.2 0.0
18 19.08 штиль 0 10 км слаб. ливневой дождь 10/10 600 м
[Cb cap]
+17.8 +15.0 84 +18 +18 1025.9 1007.1
21 19.08 В 1 10 км {ливн. осадки} 10/8 600 м
[Sc Ac trans]
+16.7 +15.3 91 +18 +18 1025.4 1006.6
00 20.08 СВ 1 10 км слаб. ливневой дождь 10/10 600 м
[Cb cap]
+16.1 +14.2 88 +17 +17 1025.1 1006.3
03 20.08 В 1 20 км {ливн. осадки} 10/4 600 м
[Sc Ac und]
+17.0 +14.7 86 +18 +18 1023.4 1004.6 +15.9 0.3
06 20.08 С 3 10 км гроза, ливневой дождь 10/10 600 м
[Cb cap]
+16.9 +16.0 94 +17 +17 1024.0 1005.3
09 20.08 ЮВ 4 20 км в посл. час ливневой дождь {гроза} 10/10 600 м
[Cu Sc]
+18.7 +17.7 94 +20 +20 1020.4 1001.8
12 20.08 Ю 3 20 км {ливн. осадки} 9/9 600 м
[Sc]
+22.1 +18.5 80 +27 +28 душно 1017.7 999.4
15 20.08 СВ 2 20 км 6/6 600 м
[Sc]
+20.3 +18.5 89 +24 +24 комфорт 1016.9 998.5 +22.3 13
18 20.08 Ю 1 10 км гроза, ливневой дождь 10/10 600 м
[Cb cap]
+18.3 +17.4 94 +20 +20 1016.3 997.8
21 20.08 СВ 3 10 км гроза, ливневой дождь 10/10 600 м
[Cb cap]
+17.7 +16.9 95 +18 +18 1015.6 997.1
00 21.08 СВ 3 10 км в посл. час ливневой дождь {гроза} 10/10 600 м
[Cb cap]
+16.6 +16.0 96 +16 +16 1016.0 997.4
03 21.08 СВ 4 10 км слаб. ливневой дождь 10/10 600 м
[Cb cap]
+15.0 +14.3 96 +14 +14 1017.4 998.6 +15.0 16
06 21.08 СВ 4 20 км {ливн. осадки} 8/8 600 м
[Cu med, cong]
+18.6 +12.8 69 +19 +20 1018.2 999.7 +14.7
09 21.08 СВ 4 20 км 5/5 600 м
[Cu med, cong]
+22.0 +9.9 46 +24 +27 комфорт 1018.5 1000.1
12 21.08 С 4 20 км 4/4 600 м
[Cu med, cong]
+21.2 +8.5 44 +22 +24 комфорт 1019.2 1000.8
15 21.08 СВ 3 20 км 3/3 600 м
[Sc diur, vesp]
+16.7 +10.8 68 +16 +16 1020.6 1001.9 +22.1 0.0
18 21.08 штиль 0 10 км ясно +10.3 +9.2 93 +10 +10 1022.3 1003.1
21 21.08 ЮЗ 1 10 км 4/4 600 м
[Sc]
+9.3 +8.5 95 +9 +9 1021.7 1002.5
00 22.08 З 1 10 км 10/10 600 м
[Sc]
+11.5 +10.7 95 +11 +11 1022.1 1003.1
03 22.08 З 1 20 км 9/9 600 м
[Sc]
+14.0 +11.8 87 +14 +15 1022.1 1003.2 +8.5
06 22.08 С 3 20 км 5/1 600 м
[Cu hum Ac As Ci fib]
+19.3 +11.6 61 +21 +26 комфорт 1021.7 1003.1
09 22.08 СЗ 3 20 км 10/6 600 м
[Sc Ac As Ci fib]
+20.2 +9.0 48 +22 +23 комфорт 1021.4 1002.9
12 22.08 СЗ 2 20 км 8/5 600 м
[Cu Sc Ci fib]
+22.1 +9.4 44 +24 +25 комфорт 1020.7 1002.3
15 22.08 Ю 1 20 км 8/0 2000 м
[Ac trans Ci fib]
+17.7 +12.9 73 +19 +19 1021.0 1002.3 +22.4
18 22.08 Ю 1 4000 м дымка 3/0 2000 м
[Ac As]
+10.8 +9.9 94 +10 +10 1021.4 1002.3
21 22.08 Ю 1 2000 м дымка 3/0
[Ci sp]
+8.3 +7.6 95 +7 +7 1021.8 1002.5
00 23.08 штиль 0 4000 м дымка 3/3 600 м
[Sc]
+7.8 +7.1 95 +7 +7 1021.5 1002.1
03 23.08 З 1 10 км 8/0
[Cs]
+15.6 +12.5 82 +16 +18 1020.7 1001.9 +7.5
06 23.08 ЮЗ 4 20 км 6/0
[Ci fib]
+22.9 +11.1 47 +25 +30 комфорт 1019.6 1001.3
09 23.08 З 4 20 км 8/0
[Ci fib]
+25.5 +10.9 40 +27 +32 жарко 1017.9 999.8
12 23.08 ЮЗ 5 20 км 1/1 600 м
[Sc]
+26.4 +9.7 35 +27 +29 жарко 1016.2 998.1
15 23.08 ЮЗ 2 20 км 8/5 600 м
[Sc Ac trans]
+23.0 +13.1 54 +26 +26 жарко 1016.4 998.1 +26.8
18 23.08 СЗ 2 10 км {ливн. осадки} 3/3 600 м
[Sc]
+20.3 +16.1 77 +24 +24 комфорт 1017.4 999.0
21 23.08 СЗ 1 10 км 8/8 600 м
[Sc]
+16.2 +13.0 81 +17 +17 1018.9 1000.2
00 24.08 З 1 10 км 8/6 600 м
[Sc Ac trans]
+12.9 +11.5 91 +13 +13 1019.7 1000.8
03 24.08 З 3 20 км 8/0
[Ci sp]
+15.0 +10.3 73 +14 +16 1020.7 1001.8 +12.4 0.0
06 24.08 СЗ 4 20 км 6/4 600 м
[Cu med, cong Ci fib]
+18.4 +8.5 52 +19 +22 1020.7 1002.1
09 24.08 З 4
{10}
20 км 3/0
[Ci fib]
+20.6 +7.4 42 +22 +28 комфорт 1019.8 1001.3
12 24.08 З 3 20 км 9/9 600 м
[Cu med, cong]
+21.5 +6.5 38 +22 +23 комфорт 1019.5 1001.0
15 24.08 З 1 20 км 5/5 600 м
[Sc]
+17.4 +8.2 55 +18 +18 1020.1 1001.4 +22.1
18 24.08 ЮЗ 1 10 км ясно +9.3 +8.0 92 +9 +9 1020.7 1001.5
21 24.08 ЮЗ 1 4000 м дымка ясно +6.8 +5.9 94 +6 +6 1020.3 1000.9
00 25.08 Ю 1 4000 м дымка ясно +4.9 +4.1 95 +3 +3 1020.2 1000.6

 

Местоположение метеостанции Бродокалмак (Челябинская область, Россия): широта 55.58 долгота 62.07 высота над уровнем моря 157 м.

В архиве по умолчанию представлена погода в Бродокалмаке за последнюю неделю. Архивные данные за месяц целиком и за предыдущие месяцы, начиная с января 2011 года, Вы можете получить, выбрав интересующий диапазон дат из раскрывающегося списка и нажав кнопку "Ввод!".


*Определитесь, кто Вы:
робот инопланетянин человек

Внимание! Время в таблицах - всемирное. Для получения местного времени необходимо прибавить поправку, которая равна 5 ч.

Смотрите также архив погоды в соседних городах и на ближайших метеорологических станциях:

Погода в Челябинске (Челябинская область, Россия) (68 км)
Погода в Аргаяше (Челябинская область, Россия) (74 км)
Погода в Шумихе (Курганская область, Россия) (88 км)
Погода в Далматово (Курганская область, Россия) (94 км)
Погода в Каменск-Уральском (Свердловская область, Россия) (95 км)
Погода в Шадринске (Курганская область, Россия) (113 км)
Погода в Верхнем Уфалее (Челябинская область, Россия) (124 км)
Погода в Сысерти (Свердловская область, Россия) (128 км)
Погода в Октябрьском (Челябинская область, Россия) (135 км)
Погода в Южноуральске (Челябинская область, Россия) (136 км)

Пояснения к столбцам:

Ветер - указаны скорость ветра в м/с - средняя за 10 мин, порывы в срок и между сроками (в фигурных скобках) и направление, откуда дует ветер: С - северный, СВ - северо-восточный, В - восточный, ЮВ - юго-восточный, Ю - южный, ЮЗ - юго-западный, З - западный, СЗ - северо-западный.
Видимость - горизонтальная дальность видимости в метрах или километрах. При видимости от 1 до 10 км при отсутствии осадков обычно наблюдается дымка, при ухудшении видимости до 1 км и менее - туман. В сухую погоду видимость может ухудшаться дымом, пылью или мглою.
Явления - указаны атмосферные явления, наблюдавшиеся в срок или в последний час перед сроком; фигурными скобками обозначены явления, наблюдавшиеся между сроками (за 1-3 часа до срока); квадратными скобками обозначены град или гололедные отложения с указанием их диаметра в мм.
Облачность - указаны через наклонную черту общая и нижняя облачность в баллах и высота нижней границы облаков в метрах; квадратными скобками обозначены формы облаков: Ci - перистые, Cs - перисто-слоистые, Cc - перисто-кучевые, Ac - высококучевые, As - высокослоистые, Sc - слоисто-кучевые, Ns - слоисто-дождевые, Cu - кучевые, Cb - кучево-дождевые. Подробнее классификацию облаков см. в Атласе облаков (PDF).
T - Температура воздуха - температура, измеренная на высоте 2 м над землей.
Td - Температура точки росы - температура, при понижении до которой содержащийся в воздухе водяной пар достигнет насыщения.
f - Относительная влажность воздуха - влажноcть воздуха, измеренная на высоте 2 м над землей.
Te - Эффективная температура - температура, которую ощущает одетый по сезону человек в тени. Характеристика душности погоды. При расчете учитывается влияние влажности воздуха и скорости ветра на теплоощущения человека.
Tes - Эффективная температура на солнце - температура, которую ощущает человек, с поправкой на солнечный нагрев. Характеристика знойности погоды. Зависит от высоты солнца над горизонтом, облачности и скорости ветра. Ночью, в пасмурную погоду, а также при ветре 12 м/с и более поправка равна нулю.
P - Атмосферное давление - приведенное к уровню моря атмосферное давление.
Po - Атмосферное давление - измеренное на уровне метеостанции атмосферное давление.
Tmin - Минимальная температура - минимум температуры воздуха на высоте 2 м над землей.
Tmax - Максимальная температура - максимум температуры воздуха на высоте 2 м над землей.
R - Количество осадков - Количество выпавших осадков за период времени, мм. При наведении курсора мыши на число - период времени, за который выпало указанное количество осадков.
R24 - Количество осадков - Количество выпавших осадков за 24 часа, мм.
S - Снежный покров - Высота снежного покрова, см. При наведении курсора мыши на число - состояние снежного покрова и степень покрытия местности в баллах.